Regional Weather Roundup
Issued by NWS

Home | Current Version | Previous Version | Text Only | Print | Product List | Glossary On
Versions: 1 2 3 4 5 6 7 8 9 10 11 12 13 14 15 16 17 18 19 20 21 22 23 24 25 26 27 28 29 30 31 32 33 34 35 36 37 38 39 40 41 42 43 44 45 46 47 48 49 50
000
ASUS44 KEWX 221310
RWRTX
SOUTH TEXAS REGIONAL WEATHER ROUNDUP
NATIONAL WEATHER SERVICE AUSTIN/SAN ANTONIO TX
800 AM CDT MON SEP 22 2014

NOTE: "FAIR" INDICATED FEW OR NO CLOUDS BELOW 12,000 FEET WITH NO
SIGNIFICANT WEATHER AND/OR OBSTRUCTIONS TO VISIBILITY.

* - THESE STATIONS ARE NOT NWS OR FAA STATIONS...AND ARE NOT SUBJECT
    TO NWS AND FAA QUALITY CONTROL.

TXZ171-172-183>190-221400-
TEXAS HILL COUNTRY AND EDWARDS PLATEAU

CITY           SKY/WX    TMP DP  RH WIND       PRES   REMARKS
JUNCTION       MOCLDY    66  63  90 CALM      30.19R
*LLANO         CLEAR     68  66  94 CALM      30.19R
BURNET         CLEAR     69  63  81 N6        30.18R
*HORSESHOE BAY CLEAR     66  66 100 CALM      30.15R
*KERRVILLE     CLEAR     63  61  94 CALM      30.17S
*FREDERICKSBRG CLEAR     63  62  95 CALM      30.18R
*ROCKSPRINGS   MOCLDY    66  63  88 CALM      30.22R
*BOERNE STAGE  CLEAR     63  61  94 CALM      30.16R
*CASTROVILLE   CLEAR     67  64  90 NW5       30.14R FOG
HONDO          CLEAR     66  62  87 N7        30.15R
*UVALDE        CLEAR     68  66  94 N3        30.14R
DEL RIO        CLEAR     74  70  87 NE7       30.12R
LAUGHLIN AFB   CLEAR     71  69  94 NE5       30.13R
CARRIZO SPRGS  CLEAR     68  68 100 CALM      30.10R FOG
$$

TXZ173-191>194-202-209-217>225-228-221400-
CENTRAL AND SOUTH CENTRAL TEXAS

CITY           SKY/WX    TMP DP  RH WIND       PRES   REMARKS
GEORGETOWN     CLEAR     70  66  88 N6        30.14R
AUSTIN/BERGSTM MOCLDY    68  66  93 CALM      30.11R
AUSTIN/MABRY   PTCLDY    71  68  90 CALM      30.13R
*AUSTIN/EXEC   MOCLDY    72  66  83 N8        30.13R
*LAGO VISTA    PTCLDY    74  64  70 N8        30.16R
SAN MARCOS     CLEAR     70  63  78 NW8       30.12R
NEW BRAUNFELS  CLEAR     69  66  90 N5        30.10R
RANDOLPH AFB   CLEAR     68  64  87 N8        30.12R
PT SAN ANTONIO CLEAR     69  65  87 NW5       30.10R
SAN ANTONIO    PTCLDY    70  65  84 NW7       30.12R
STINSON FIELD  CLEAR     69  65  86 CALM      30.09S
*PLEASANTON    CLEAR     68  65  93 NW3       30.10S FOG
*LA GRANGE     CLEAR     72  70  93 CALM      30.08R
*GIDDINGS      PTCLDY    71  66  84 N6        30.15R
*GONZALES      CLEAR     70  69  98 CALM      30.08S FOG
$$

TXZ163>164-176>182-195>201-210>213-226-227-235-221400-
SOUTHEAST TEXAS

CITY           SKY/WX    TMP DP  RH WIND       PRES   REMARKS
COLLEGE STN    CLEAR     73  68  84 N6        30.10R
*BRYAN         CLEAR    N/A N/A N/A N3        30.10S
*CALDWELL      CLEAR     70  68  94 NW5       30.14R
*CROCKETT      CLEAR     75  73  94 NE9       30.14R
*BRENHAM       CLEAR     74  70  89 NW3       30.10S
HUNTSVILLE     CLEAR     70  67  90 N3        30.10R
CONROE         PTCLDY    70  69  97 CALM      30.08S
HOUSTON BUSH   MOSUNNY   76  70  82 VRB3      30.07R
HOUSTON HOBBY  MOSUNNY   77  72  84 N5        30.06R
*HOUSTON SW AP PTCLDY    64  63  97 CALM      30.07R
PEARLAND       MOSUNNY   76  72  87 CALM      30.07R
HOUSTON HOOKS  PTCLDY    74  69  85 N3        30.07S
ELLINGTON FLD  MOSUNNY   77  72  83 CALM      30.07R
SUGAR LAND     PTCLDY    74  71  91 N6        30.07R
*HOUSTON EXEC  PTCLDY    72  72 100 N3        30.08S
*CLEVELAND MUN MOSUNNY   71  70  98 CALM      30.08R FOG
*WHARTON       CLEAR     71  69  96 N3        30.08R
$$

TXZ214>216-236>238-221400-
THE UPPER TEXAS COAST

CITY           SKY/WX    TMP DP  RH WIND       PRES   REMARKS
*ORANGE        SUNNY    N/A N/A N/A CALM      30.07R HAZE
PORT ARTHUR    SUNNY     74  72  93 N3        30.05R FOG
GALVESTON      SUNNY     80  77  90 N3        30.06R
ANGLETON       SUNNY     71  70  96 N3        30.06R
*BAY CITY      CLEAR    N/A N/A N/A CALM      30.06S HAZE
PALACIOS       CLEAR     72  70  93 N6        30.06R FOG
$$

TXZ229>234-239>247-221400-
TEXAS COASTAL BEND AND RIO GRANDE PLAINS

CITY           SKY/WX    TMP DP  RH WIND       PRES   REMARKS
VICTORIA       CLEAR     72  69  90 N3        30.07S
*BEEVILLE      CLEAR     71  71  99 N6        30.07R
ROCKPORT       CLEAR     76  73  91 N9        30.05R
*PORT ARANSAS  MOCLDY    79  76  90 NE9       30.04R
*PORT LAVACA   CLEAR     72  70  93 NE3       30.06S
*INGLESIDE     CLEAR     77  75  93 NE7       30.04R
CORPUS CHRISTI MOCLDY    75  73  93 N8        30.04R
CORPUS NAS     MOCLDY    80  77  90 NE14      30.03R
*ROBSTOWN      CLEAR     74  72  95 N7        30.05S FOG
ALICE          CLEAR     73  71  93 N7        30.05R
KINGSVILLE NAS MOCLDY    73  73 100 N6        30.04R
COTULLA        CLEAR     72  68  87 N5        30.10R FOG
*FAITH RANCH   CLEAR     68  68 100 NE5       30.10R
LAREDO         CLEAR     73  73 100 N7        30.11R
$$

TXZ248>255-221400-
DEEP SOUTH TEXAS

CITY           SKY/WX    TMP DP  RH WIND       PRES   REMARKS
BROWNSVILLE    PTCLDY    77  75  93 CALM      30.00R
PORT ISABEL    NOT AVBL
*SOUTH PADRE   PTCLDY    81  75  83 NE12      30.00R
HARLINGEN      PTCLDY    76  75  97 CALM      30.00R
*HEBBRONVILLE    N/A     71  70  94 N3        30.08R FOG
MCALLEN        PTCLDY    77  75  93 N6        30.01S
*WESLACO       PTCLDY    76  73  91 CALM      30.01R
FALFURRIAS     CLEAR    N/A N/A N/A N8        30.03S
EDINBURG       PTCLDY    76  73  88 N5        30.02S
*ZAPATA        CLEAR     72  70  95 N3        30.06R
$$

TXZ213>215-236>238-242>244-246-247-251-254-255-221400-
CMAN STATIONS

STATION/POSITION TIME  TEMP    WIND        PRES    WAVE
                       AIR SEA DIR/SP/G            HT/PER
                 (UTC) (F)     (DEG/KT/KT) (MB)    (FT/S)
SABINE PASS      1300   77 83   60/  1/  2 1017.7
SEA RIM ST PARK  1300   76     360/  1/  1 1018.1
NORTH JETTY/GLS  1300   81 83                N/A
EAGLE POINT      1300   79 83   10/  2/  4 1017.9
MORGANS POINT    1300   78      CALM  /  1 1017.8
MISSION/ARANSAS  1200           20/ 10     1018.0
PORT O`CONNOR    1300           20/ 11/ 15   N/A
PORT ARANSAS     1300   79 83   10/ 11/ 13 1017.6
MALAQUITE BEACH  1300   83 83   50/ 16/ 18 1016.2
BAFFIN BAY       1300   82 80   70/ 13/ 15 1016.6
PORT ISABEL      1300   81 84   50/  4/  6 1015.9
$$

GMZ080-GMZ150>470-221400-
OFFSHORE BUOY REPORTS

STATION/POSITION TIME  TEMP    WIND        PRES    WAVE
                       AIR SEA DIR/SP/G            HT/PER
                 (UTC) (F)     (DEG/KT/KT) (MB)    (FT/S)
20 E GALVESTON   1300   81 83   20/  4/  6 1017.2    2/ 5
90 E PT ARANSAS  1300   83 84   50/ 14/ 16 1016.8    4/ 7
35 NE PT MANSFLD 1300   83 84   50/ 16/ 19 1015.3    5/ 8
200 E PT ISABEL  1300   83 85   80/ 10/ 14 1015.1    4/ 6
$$


USA.gov is the U.S. government's official web portal to all federal, state and local government web resources and services.